FW1440 Weather Reports


time (UTC)temp
C
wind
direction
speed
KPH
gust
KPH
rain 1hr
cm
rain 24hr
cm
rain mn
cm
humidity
%
barometer
mb
20260506014232 15 157 3.2 12.9 0.00 0.00 0.00 77 1012.6
20260506013726 15 147 4.8 12.9 0.00 0.00 0.00 76 1012.6
20260506012726 15 151 4.8 12.9 0.00 0.00 0.00 75 1012.7
20260506012226 15 175 4.8 12.9 0.00 0.00 0.00 75 1012.8
20260506011726 15 147 4.8 12.9 0.00 0.00 0.00 75 1012.8
20260506011226 15 162 4.8 17.7 0.00 0.00 0.00 76 1012.8
20260506010726 15 151 4.8 17.7 0.00 0.00 0.00 76 1012.7
20260506010226 15 166 4.8 19.3 0.00 0.00 0.00 77 1012.7
20260506005725 15 144 4.8 19.3 0.00 0.00 0.00 76 1012.7
20260506004717 15 168 6.4 17.7 0.00 0.00 0.00 76 1012.6
20260506004216 15 176 6.4 16.1 0.00 0.00 0.00 77 1012.7
20260506003716 15 152 6.4 16.1 0.00 0.00 0.00 77 1012.7
20260506003216 15 114 6.4 14.5 0.00 0.00 0.00 75 1012.7
20260506002717 15 136 6.4 19.3 0.00 0.00 0.00 75 1012.6
20260506002216 16 117 6.4 19.3 0.00 0.00 0.00 74 1012.7
20260506001715 16 101 4.8 14.5 0.00 0.00 0.00 74 1012.7
20260506001217 16 143 4.8 14.5 0.00 0.00 0.00 74 1012.7
20260506000715 16 112 4.8 12.9 0.00 0.00 0.00 74 1012.8
20260506000219 16 126 4.8 11.3 0.00 0.00 0.00 74 1012.8
20260505235716 16 154 4.8 14.5 0.00 0.00 0.00 74 1012.9
20260505234716 17 152 3.2 11.3 0.00 0.00 0.00 73 1013.0
20260505234215 17 213 3.2 12.9 0.00 0.00 0.00 72 1013.0
20260505233714 17 154 3.2 12.9 0.00 0.00 0.00 72 1013.1
20260505233211 17 176 3.2 8.0 0.00 0.00 0.00 73 1013.1
20260505232703 17 151 3.2 9.7 0.00 0.00 0.00 73 1013.2
20260505232205 17 164 3.2 11.3 0.00 0.00 0.00 73 1013.2
20260505231702 17 126 3.2 11.3 0.00 0.00 0.00 74 1013.2
20260505231202 17 137 4.8 16.1 0.00 0.00 0.00 73 1013.2
20260505230702 17 160 4.8 16.1 0.00 0.00 0.00 72 1013.2
20260505230202 17 184 3.2 11.3 0.00 0.00 0.00 73 1013.4
20260505225206 17 189 3.2 12.9 0.00 0.00 0.00 75 1013.3
20260505224702 17 204 4.8 11.3 0.00 0.00 0.00 74 1013.3
20260505224201 17 158 3.2 11.3 0.00 0.00 0.00 73 1013.4
20260505223702 17 141 3.2 11.3 0.00 0.00 0.00 73 1013.5
20260505223201 17 113 3.2 11.3 0.00 0.00 0.00 75 1013.5
20260505222154 17 231 3.2 12.9 0.00 0.00 0.00 76 1013.6
20260505221649 16 130 3.2 12.9 0.00 0.00 0.00 77 1013.7
20260505221143 16 146 3.2 11.3 0.00 0.00 0.00 78 1013.7
20260505220642 16 77 3.2 8.0 0.00 0.00 0.00 79 1013.8
20260505220140 16 147 3.2 11.3 0.00 0.00 0.00 79 1013.8
20260505215640 15 125 3.2 11.3 0.00 0.00 0.00 79 1013.9
20260505215139 15 167 3.2 11.3 0.00 0.00 0.00 79 1014.0
20260505214139 15 128 3.2 11.3 0.00 0.00 0.00 79 1013.9
20260505213640 15 122 4.8 11.3 0.00 0.00 0.00 79 1014.0
20260505212639 15 137 4.8 12.9 0.00 0.00 0.00 80 1014.0
20260505212140 15 189 4.8 14.5 0.00 0.00 0.00 80 1013.9
20260505211640 15 143 4.8 14.5 0.00 0.00 0.00 80 1014.0
20260505210639 15 182 4.8 16.1 0.00 0.00 0.00 81 1014.0
20260505210129 15 126 4.8 16.1 0.00 0.00 0.00 81 1014.1
20260505205630 15 151 4.8 12.9 0.00 0.00 0.00 81 1014.1
20260505205130 15 121 4.8 12.9 0.00 0.00 0.00 81 1014.2
20260505204626 15 118 3.2 12.9 0.00 0.00 0.00 81 1014.2
20260505203624 15 153 4.8 14.5 0.00 0.00 0.00 82 1014.2
20260505202625 15 176 4.8 12.9 0.00 0.00 0.00 82 1014.1
20260505202124 15 176 4.8 11.3 0.00 0.00 0.00 83 1014.1
20260505201622 15 147 3.2 8.0 0.00 0.00 0.00 82 1014.1
20260505201122 15 131 3.2 8.0 0.00 0.00 0.00 82 1014.0
20260505200116 15 176 3.2 11.3 0.00 0.00 0.00 84 1014.0
20260505195615 14 126 3.2 11.3 0.00 0.00 0.00 83 1014.1
20260505195119 14 183 3.2 11.3 0.00 0.00 0.00 84 1014.1
20260505194613 14 124 3.2 11.3 0.00 0.00 0.00 83 1014.1
20260505194113 14 173 1.6 9.7 0.00 0.00 0.00 85 1014.1
20260505193614 14 171 3.2 9.7 0.00 0.00 0.00 85 1014.1
20260505193114 14 145 3.2 9.7 0.00 0.00 0.00 85 1014.1
20260505192612 14 145 3.2 9.7 0.00 0.00 0.00 85 1014.1
20260505192112 13 155 3.2 9.7 0.00 0.00 0.00 85 1014.1
20260505191612 13 178 3.2 9.7 0.00 0.00 0.00 85 1014.2
20260505191111 13 168 3.2 9.7 0.00 0.00 0.00 85 1014.1
20260505190609 13 187 1.6 9.7 0.00 0.00 0.00 86 1014.1
20260505190110 13 178 3.2 9.7 0.00 0.00 0.00 85 1014.2
20260505185107 13 149 3.2 9.7 0.00 0.00 0.00 86 1014.1
20260505184608 13 156 3.2 11.3 0.00 0.00 0.00 85 1014.1
20260505183603 13 139 3.2 11.3 0.00 0.00 0.00 85 1014.0
20260505182603 13 139 3.2 6.4 0.00 0.00 0.00 86 1014.0
20260505182103 13 147 1.6 6.4 0.00 0.00 0.00 86 1014.0
20260505181103 13 175 1.6 4.8 0.00 0.00 0.00 88 1014.0
20260505175601 12 184 1.6 6.4 0.00 0.00 0.00 88 1014.0
20260505175059 12 172 3.2 6.4 0.00 0.00 0.00 88 1013.9
20260505174559 12 186 3.2 6.4 0.00 0.00 0.00 88 1013.9
20260505174058 12 176 1.6 6.4 0.00 0.00 0.00 88 1013.9
20260505173557 12 176 1.6 6.4 0.00 0.00 0.00 88 1013.9
20260505173058 12 185 1.6 4.8 0.00 0.00 0.00 89 1013.9
20260505172557 12 197 1.6 6.4 0.00 0.00 0.00 89 1013.8
20260505172057 12 183 3.2 8.0 0.00 0.00 0.00 89 1013.8
20260505171557 12 181 3.2 9.7 0.00 0.00 0.00 89 1013.9
20260505171058 12 175 1.6 9.7 0.00 0.00 0.00 90 1013.7
20260505170052 12 150 1.6 6.4 0.00 0.00 0.00 91 1013.7
20260505165546 12 184 1.6 4.8 0.00 0.00 0.00 91 1013.7
20260505165040 12 187 1.6 4.8 0.00 0.00 0.00 91 1013.7
20260505163534 11 139 3.2 8.0 0.00 0.00 0.00 92 1013.7
20260505162533 11 174 1.6 8.0 0.00 0.00 0.00 92 1013.7
20260505162031 11 166 1.6 8.0 0.00 0.00 0.00 92 1013.7
20260505161532 11 149 1.6 6.4 0.00 0.00 0.00 92 1013.8
20260505161031 11 143 1.6 8.0 0.00 0.00 0.00 92 1013.9
20260505160530 11 144 3.2 9.7 0.00 0.00 0.00 92 1013.8
20260505153019 11 149 3.2 6.4 0.00 0.00 0.00 92 1013.5
20260505152520 11 134 3.2 9.7 0.00 0.00 0.00 92 1013.5
20260505152014 11 161 1.6 9.7 0.00 0.00 0.00 92 1013.5
20260505151509 11 145 1.6 9.7 0.00 0.00 0.00 92 1013.5
20260505151003 11 170 1.6 4.8 0.00 0.00 0.00 92 1013.4
20260505150501 11 191 1.6 4.8 0.00 0.00 0.00 91 1013.4
20260505140454 11 153 1.6 4.8 0.00 0.00 0.00 91 1012.7
20260505124943 10 152 1.6 8.0 0.00 0.00 0.00 91 1012.0
20260505124440 10 137 0.0 8.0 0.00 0.00 0.00 91 1011.9
20260505122938 10 14 0.0 4.8 0.00 0.00 0.00 91 1011.8
20260505122436 10 240 1.6 8.0 0.00 0.00 0.00 91 1011.7
20260505121934 10 76 1.6 8.0 0.00 0.00 0.00 91 1011.6
20260505121433 10 65 1.6 3.2 0.00 0.00 0.00 90 1011.6
20260505120930 10 64 1.6 3.2 0.00 0.00 0.00 90 1011.6
20260505120428 10 64 1.6 4.8 0.00 0.00 0.00 91 1011.5
20260505115929 10 49 1.6 6.4 0.00 0.00 0.00 91 1011.5
20260505115429 10 124 1.6 6.4 0.00 0.00 0.00 90 1011.4
20260505114929 10 10 0.0 4.8 0.00 0.00 0.00 90 1011.4
20260505113929 10 130 0.0 3.2 0.00 0.00 0.00 90 1011.4
20260505113429 10 115 0.0 0.0 0.00 0.00 0.00 90 1011.3
20260505112428 10 116 1.6 6.4 0.00 0.00 0.00 90 1011.1
20260505111929 10 116 1.6 6.4 0.00 0.00 0.00 90 1011.1
20260505111428 10 14 1.6 6.4 0.00 0.00 0.00 89 1011.1
20260505110929 10 27 1.6 6.4 0.00 0.00 0.00 89 1011.0
20260505110426 10 307 1.6 6.4 0.00 0.00 0.00 89 1010.9
20260505101918 11 224 3.2 9.7 0.00 0.00 0.00 88 1010.5
20260505101419 11 137 3.2 9.7 0.00 0.00 0.00 88 1010.4
20260505100419 11 142 3.2 11.3 0.00 0.00 0.00 88 1010.4
20260505095417 11 122 1.6 11.3 0.00 0.00 0.00 87 1010.5
20260505094913 11 101 1.6 8.0 0.00 0.00 0.00 87 1010.5
20260505093402 11 108 3.2 14.5 0.00 0.00 0.00 87 1010.4
20260505092403 11 146 1.6 9.7 0.00 0.00 0.00 86 1010.2
20260505091902 11 108 3.2 12.9 0.00 0.00 0.00 86 1010.2
20260505091402 11 118 3.2 12.9 0.00 0.00 0.00 86 1010.1
20260505090902 11 125 3.2 16.1 0.00 0.00 0.00 85 1010.1
20260505090403 11 139 1.6 16.1 0.00 0.00 0.00 85 1010.1
20260505085902 11 31 1.6 11.3 0.00 0.00 0.00 85 1010.1
20260505085402 11 77 1.6 11.3 0.00 0.00 0.00 84 1010.1
20260505084400 11 56 3.2 12.9 0.00 0.00 0.00 84 1010.0
20260505082900 12 256 3.2 12.9 0.00 0.00 0.00 82 1009.8
20260505082358 12 324 4.8 14.5 0.00 0.00 0.00 82 1009.7
20260505081903 12 245 4.8 14.5 0.00 0.00 0.00 82 1009.7
20260505081358 12 293 4.8 16.1 0.00 0.00 0.00 82 1009.3
20260505080858 12 90 4.8 16.1 0.00 0.00 0.00 82 1009.1
20260505080358 12 117 6.4 19.3 0.00 0.00 0.00 82 1009.1
20260505075858 12 137 9.7 40.2 0.00 0.00 0.00 82 1009.0
20260505074858 11 79 4.8 19.3 0.00 0.00 0.00 85 1009.0
20260505074358 11 293 4.8 19.3 0.00 0.00 0.00 84 1009.0
20260505073853 11 153 4.8 11.3 0.00 0.00 0.00 84 1008.9
20260505072842 11 276 4.8 25.7 0.00 0.00 0.00 84 1008.9
20260505071838 11 122 4.8 17.7 0.00 0.00 0.00 83 1008.9
20260505071338 11 39 4.8 17.7 0.00 0.00 0.00 83 1008.8
20260505070838 12 117 4.8 16.1 0.00 0.00 0.00 82 1008.8
20260505065836 12 310 6.4 16.1 0.00 0.00 0.00 81 1008.6
20260505065337 12 101 4.8 16.1 0.00 0.00 0.00 81 1008.6
20260505064836 12 45 6.4 16.1 0.00 0.00 0.00 80 1008.5
20260505064337 12 103 6.4 17.7 0.00 0.00 0.00 80 1008.5
20260505063837 12 125 4.8 17.7 0.00 0.00 0.00 80 1008.4
20260505063336 12 157 3.2 16.1 0.00 0.00 0.00 79 1008.5
20260505062833 12 107 3.2 16.1 0.00 0.00 0.00 78 1008.4
20260505062331 12 135 1.6 6.4 0.00 0.00 0.00 77 1008.4
20260505061831 12 92 1.6 6.4 0.00 0.00 0.00 76 1008.3
20260505061329 12 93 1.6 6.4 0.00 0.00 0.00 75 1008.3
20260505060826 12 295 1.6 6.4 0.00 0.00 0.00 75 1008.2
20260505055322 13 297 0.0 3.2 0.00 0.00 0.00 73 1008.0
20260505054821 13 295 1.6 4.8 0.00 0.00 0.00 73 1008.0
20260505054320 13 295 1.6 4.8 0.00 0.00 0.00 72 1008.1
20260505053821 13 43 1.6 3.2 0.00 0.00 0.00 72 1008.0
20260505053320 13 43 1.6 4.8 0.00 0.00 0.00 71 1007.9
20260505052320 14 51 1.6 4.8 0.00 0.00 0.00 70 1007.8
20260505051819 14 51 1.6 4.8 0.00 0.00 0.00 70 1007.8
20260505050819 14 122 1.6 8.0 0.00 0.00 0.00 69 1007.7
20260505041322 15 126 6.4 14.5 0.00 0.00 0.00 67 1007.1
20260505040817 15 116 4.8 14.5 0.00 0.00 0.00 67 1007.1
20260505040317 15 116 4.8 12.9 0.00 0.00 0.00 66 1007.0
20260505035818 15 139 4.8 11.3 0.00 0.00 0.00 66 1006.9
20260505035317 16 118 3.2 9.7 0.00 0.00 0.00 66 1006.8
20260505034817 16 119 3.2 9.7 0.00 0.00 0.00 66 1006.9
20260505034316 16 135 3.2 12.9 0.00 0.00 0.00 65 1006.8
20260505033315 16 149 1.6 8.0 0.00 0.00 0.00 65 1006.8
20260505032814 16 154 1.6 4.8 0.00 0.00 0.00 65 1006.7
20260505031814 16 119 3.2 8.0 0.00 0.00 0.00 64 1006.6
20260505031315 17 124 3.2 8.0 0.00 0.00 0.00 64 1006.6
20260505030815 17 118 1.6 8.0 0.00 0.00 0.00 63 1006.5
20260505030315 17 105 0.0 4.8 0.00 0.00 0.00 64 1006.5
20260505025814 17 100 0.0 3.2 0.00 0.00 0.00 64 1006.4
20260505025315 17 124 1.6 3.2 0.00 0.00 0.00 65 1006.4
20260505024310 18 124 1.6 4.8 0.00 0.00 0.00 63 1006.4
20260505023810 18 304 1.6 4.8 0.00 0.00 0.00 63 1006.4
20260505023311 18 304 1.6 4.8 0.00 0.00 0.00 63 1006.4
20260505022811 19 304 1.6 3.2 0.00 0.00 0.00 61 1006.4
20260505022310 19 304 0.0 4.8 0.00 0.00 0.00 60 1006.4
20260505021810 20 304 0.0 4.8 0.00 0.00 0.00 59 1006.5
20260505021311 20 304 1.6 3.2 0.00 0.00 0.00 58 1006.5
20260505020811 20 304 1.6 6.4 0.00 0.00 0.00 57 1006.5
20260505020311 20 304 3.2 6.4 0.00 0.00 0.00 57 1006.5
20260505015810 20 305 1.6 6.4 0.00 0.00 0.00 58 1006.5
20260505015311 20 316 1.6 3.2 0.00 0.00 0.00 58 1006.5
20260505014307 20 304 1.6 4.8 0.00 0.00 0.00 58 1006.6